User: anonymous   Login
Location: Wildlife_Club
(35.6000°N, 81.4330°W)
Time: 23:48:22
(UTC-04:00)
Language:

Cosmos 1782 - Orbit

View from above orbital plane
View from above orbital plane
View from above satellite
View from above satellite

Ground track
Ground track

The orbit data is extracted from the following two-line orbital elements,

1 16986U 86074A   15245.88966032 +.00001389 +00000-0 +94988-4 0  9997
2 16986 082.5065 036.2763 0012927 055.9934 304.2518 15.05307481551346
Epoch (UTC): 02 September 2015 21:21:06
Eccentricity: 0.0012927
inclination: 82.5065°
perigee height: 541 km
apogee height: 559 km
right ascension of ascending node: 36.2763°
argument of perigee: 55.9934°
revolutions per day: 15.05307481
mean anomaly at epoch: 304.2518°
orbit number at epoch: 55134

The dashed part of the orbit path shows where the satellite is in the earth's shadow,  

DLR